Find Starlink 31555

NORAD ID: 59351 Int'l Des: 2024-060 Owner: SPXS Country: US Constellation: starlink operational
LEOCIRCULAR

当前视图

正在加载3D地球...

About Starlink 31555

Starlink 31555 (NORAD 59351) is a starlink constellation satellite (v2 mini) launched Mar 31, 2024 by SPXS of US. It operates in LEO, CIRCULAR orbit with a mass of 730.00 kg.

即将过境

Passes for default location (London). Set your location on the main map for personalized predictions.

高度历史

Loading altitude history...

两行轨道根数

1 59351U 24060D 26264.27372616 -.00001094 00000-0 -30244-4 0 9992
2 59351 43.0014 235.4077 0001349 274.7876 85.2821 15.27573746140023
Epoch: Sep 21, 2026 • Age: 8 hours

当前状态

高度 492.4 km
远地点 / 近地点 N/A
速度 7.62 km/s
星下点 -35.42°S, 28.63°W
发射日期 Mar 31, 2024
运行时间 2.4 years
类型 internet

技术详情

分类 Payload
质量 730.00 kg
干质量 700.00 kg
长度 0.30 m
跨度 29.00 m
形状 ? Box + pan
制造商 SPXS
平台类型 Starlink V2M
阶段状态 In Orbit
所有者/国家 SPXS/US

Most Searched